This is the latest recevied weather packets stored in our database for station/object HS3PIK-2. If no packets are shown the sender has not sent any weather packets the latest 1 day(s).
| Time | Temp. | Humidity | Pressure | Rain* | Wind** | Luminosity | Snow |
|---|---|---|---|---|---|---|---|
| 1777975283 | 36.67° C | 57% | - | - | 0 m/s | 0 W/m² | - |
| 1777974958 | 37.22° C | 56% | - | - | 0 m/s | 0 W/m² | - |
| 1777974628 | 38.33° C | 55% | - | - | 0 m/s | 0 W/m² | - |
| 1777974301 | 39.44° C | 54% | - | - | 0 m/s | 0 W/m² | - |
| 1777973976 | 39.44° C | 51% | - | - | 0 m/s | 0 W/m² | - |
| 1777973649 | 40.56° C | 49% | - | - | 0 m/s | 0 W/m² | - |
| 1777973319 | 40.56° C | 49% | - | - | 0 m/s | 0 W/m² | - |
| 1777972989 | 39.44° C | 52% | - | - | 0 m/s | 0 W/m² | - |
| 1777972659 | 38.89° C | 51% | - | - | 0 m/s | 0 W/m² | - |
| 1777972332 | 38.33° C | 50% | - | - | 0 m/s | 0 W/m² | - |
| 1777972001 | 38.89° C | 51% | - | - | 0 m/s | 0 W/m² | - |
| 1777971676 | 37.78° C | 53% | - | - | 0 m/s | 0 W/m² | - |
| 1777971346 | 37.22° C | 52% | - | - | 0 m/s | 0 W/m² | - |
| 1777971022 | 37.22° C | 52% | - | - | 0 m/s | 0 W/m² | - |
| 1777970689 | 37.22° C | 55% | - | - | 0 m/s | 0 W/m² | - |
| 1777970362 | 36.67° C | 55% | - | - | 0 m/s | 0 W/m² | - |
| 1777970034 | 37.22° C | 54% | - | - | 0 m/s | 0 W/m² | - |
| 1777969704 | 37.22° C | 56% | - | - | 0 m/s | 0 W/m² | - |
| 1777969374 | 36.67° C | 55% | - | - | 0 m/s | 0 W/m² | - |
| 1777969044 | 36.11° C | 56% | - | - | 0 m/s | 0 W/m² | - |
| 1777968711 | 36.11° C | 58% | - | - | 0 m/s | 0 W/m² | - |
| 1777968384 | 35.56° C | 57% | - | - | 0 m/s | 0 W/m² | - |
| 1777968059 | 35.56° C | 59% | - | - | 0 m/s | 0 W/m² | - |
| 1777967732 | 35° C | 58% | - | - | 0 m/s | 0 W/m² | - |
| 1777967402 | 35.56° C | 56% | - | - | 0 m/s | 0 W/m² | - |
* Rain since midnight (hover to see other rain measurements)
** Current wind speed in m/s (hover to see current wind gust speed)